ECOIR LEMG-LPPT

Flight info

Callsign ECOIR
Flight time N/A
Altitude 8500
Route VFR
Aircraft P208/L-SYOG/C

Departure

Time 2026-05-06 15:59
Airport Málaga-Costa del Sol Airport (LEMG)

Arrival

Time N/A
Airport Lisbon Humberto Delgado Airport (LPPT)
Time Latitude Longitude Altitude Speed Heading
2026-05-06 15:41 36.66837 -4.48420 27 ft 0 kts 41°
2026-05-06 15:48 36.66848 -4.48409 27 ft 5 kts 35°
2026-05-06 15:48 36.66859 -4.48406 26 ft 2 kts 340°
2026-05-06 15:49 36.66864 -4.48413 27 ft 1 kts 294°
2026-05-06 15:49 36.66861 -4.48469 29 ft 15 kts 263°
2026-05-06 15:49 36.66853 -4.48535 31 ft 6 kts 235°
2026-05-06 15:49 36.66841 -4.48556 31 ft 4 kts 231°
2026-05-06 15:50 36.66813 -4.48584 32 ft 8 kts 214°
2026-05-06 15:50 36.66789 -4.48627 33 ft 3 kts 283°
2026-05-06 15:50 36.66802 -4.48650 33 ft 8 kts 307°
2026-05-06 15:50 36.66867 -4.48745 35 ft 20 kts 314°
2026-05-06 15:51 36.66980 -4.48903 39 ft 28 kts 309°
2026-05-06 15:51 36.67133 -4.49116 41 ft 38 kts 311°
2026-05-06 15:51 36.67328 -4.49388 40 ft 45 kts 310°
2026-05-06 15:51 36.67534 -4.49677 43 ft 43 kts 314°
2026-05-06 15:52 36.67707 -4.49920 48 ft 32 kts 310°
2026-05-06 15:52 36.67783 -4.50026 50 ft 12 kts 309°
2026-05-06 15:52 36.67842 -4.50110 49 ft 14 kts 311°
2026-05-06 15:52 36.67892 -4.50133 48 ft 5 kts 17°
2026-05-06 15:53 36.67941 -4.50119 47 ft 3 kts 337°
2026-05-06 15:53 36.67965 -4.50144 47 ft 7 kts 311°
2026-05-06 15:53 36.68014 -4.50209 47 ft 13 kts 310°
2026-05-06 15:53 36.68081 -4.50303 45 ft 16 kts 313°
2026-05-06 15:54 36.68155 -4.50407 46 ft 15 kts 315°
2026-05-06 15:54 36.68222 -4.50493 47 ft 13 kts 312°
2026-05-06 15:54 36.68272 -4.50565 47 ft 10 kts 313°
2026-05-06 15:54 36.68302 -4.50606 48 ft 0 kts 317°
2026-05-06 15:55 36.68303 -4.50607 48 ft 1 kts 316°
2026-05-06 15:55 36.68325 -4.50638 49 ft 1 kts 312°
2026-05-06 15:55 36.68341 -4.50673 51 ft 4 kts 276°
2026-05-06 15:56 36.68335 -4.50705 52 ft 2 kts 240°
2026-05-06 15:56 36.68318 -4.50723 53 ft 7 kts 204°
2026-05-06 15:56 36.68276 -4.50710 53 ft 6 kts 137°
2026-05-06 15:56 36.68227 -4.50643 51 ft 4 kts 129°
2026-05-06 15:57 36.68224 -4.50641 51 ft 0 kts 211°
2026-05-06 15:57 36.68247 -4.50679 52 ft 21 kts 314°
2026-05-06 15:57 36.68393 -4.50881 56 ft 31 kts 308°
2026-05-06 15:57 36.68489 -4.51017 59 ft 16 kts 307°
2026-05-06 15:58 36.68487 -4.51102 60 ft 8 kts 227°
2026-05-06 15:58 36.68401 -4.51135 58 ft 17 kts 180°
2026-05-06 15:58 36.68354 -4.51115 54 ft 0 kts 132°
2026-05-06 15:58 36.68279 -4.51011 56 ft 41 kts 131°
2026-05-06 15:59 36.68018 -4.50644 131 ft 62 kts 130°
2026-05-06 15:59 36.67745 -4.50239 328 ft 60 kts 132°
2026-05-06 15:59 36.67408 -4.49931 494 ft 64 kts 159°
2026-05-06 15:59 36.66941 -4.49951 656 ft 73 kts 189°
2026-05-06 16:00 36.66448 -4.50206 842 ft 81 kts 197°
2026-05-06 16:00 36.65922 -4.50507 1003 ft 83 kts 201°
2026-05-06 16:00 36.65365 -4.50756 1052 ft 90 kts 191°
2026-05-06 16:00 36.64740 -4.50910 1060 ft 94 kts 189°
2026-05-06 16:01 36.64094 -4.51065 1060 ft 95 kts 189°
2026-05-06 16:01 36.63445 -4.51225 1028 ft 96 kts 189°
2026-05-06 16:01 36.62774 -4.51403 991 ft 98 kts 189°
2026-05-06 16:01 36.62134 -4.51599 1009 ft 96 kts 194°
2026-05-06 16:02 36.61484 -4.51836 1029 ft 97 kts 202°
2026-05-06 16:02 36.60862 -4.52215 1032 ft 102 kts 207°
2026-05-06 16:02 36.60281 -4.52649 1175 ft 90 kts 213°
2026-05-06 16:02 36.59780 -4.53065 1361 ft 86 kts 214°
2026-05-06 16:03 36.59261 -4.53473 1527 ft 90 kts 210°
2026-05-06 16:03 36.58698 -4.53831 1719 ft 90 kts 208°
2026-05-06 16:03 36.58277 -4.54363 1990 ft 90 kts 242°
2026-05-06 16:03 36.57961 -4.55033 2284 ft 89 kts 234°
2026-05-06 16:04 36.57624 -4.55686 2418 ft 90 kts 236°
2026-05-06 16:04 36.57292 -4.56333 2529 ft 90 kts 236°
2026-05-06 16:04 36.56955 -4.56987 2659 ft 89 kts 236°
2026-05-06 16:04 36.56618 -4.57636 2783 ft 89 kts 237°
2026-05-06 16:05 36.56288 -4.58275 2905 ft 89 kts 237°
2026-05-06 16:05 36.55953 -4.58922 3009 ft 89 kts 237°
2026-05-06 16:05 36.55526 -4.59470 3117 ft 89 kts 213°
2026-05-06 16:05 36.55019 -4.59907 3216 ft 89 kts 217°
2026-05-06 16:06 36.54524 -4.60357 3313 ft 89 kts 217°
2026-05-06 16:06 36.54021 -4.60816 3419 ft 90 kts 217°
2026-05-06 16:06 36.53511 -4.61280 3490 ft 94 kts 217°
2026-05-06 16:06 36.52966 -4.61779 3502 ft 99 kts 218°
2026-05-06 16:07 36.52399 -4.62301 3499 ft 102 kts 218°
2026-05-06 16:07 36.51831 -4.62825 3504 ft 103 kts 218°
2026-05-06 16:07 36.51256 -4.63353 3497 ft 101 kts 218°
2026-05-06 16:07 36.50801 -4.63978 3500 ft 100 kts 249°
2026-05-06 16:08 36.50734 -4.64849 3499 ft 103 kts 273°
2026-05-06 16:08 36.50765 -4.65739 3498 ft 103 kts 272°
2026-05-06 16:08 36.50782 -4.66633 3492 ft 103 kts 271°
2026-05-06 16:08 36.50796 -4.67513 3498 ft 101 kts 270°
2026-05-06 16:09 36.50803 -4.68365 3543 ft 96 kts 271°
2026-05-06 16:09 36.50815 -4.69182 3601 ft 92 kts 270°
2026-05-06 16:09 36.50816 -4.69953 3661 ft 87 kts 270°
2026-05-06 16:09 36.50816 -4.70689 3718 ft 83 kts 271°
2026-05-06 16:10 36.50818 -4.71395 3776 ft 81 kts 270°
2026-05-06 16:10 36.50819 -4.72098 3840 ft 80 kts 271°
2026-05-06 16:10 36.50824 -4.72801 3908 ft 81 kts 271°
2026-05-06 16:10 36.50832 -4.73493 3983 ft 81 kts 271°
2026-05-06 16:11 36.50842 -4.74187 4045 ft 79 kts 272°
2026-05-06 16:11 36.50844 -4.74852 4113 ft 75 kts 272°
2026-05-06 16:11 36.50844 -4.75519 4173 ft 78 kts 274°
2026-05-06 16:11 36.50850 -4.76187 4263 ft 80 kts 272°
2026-05-06 16:12 36.50859 -4.76891 4331 ft 79 kts 274°
2026-05-06 16:12 36.50864 -4.77570 4405 ft 79 kts 273°
2026-05-06 16:12 36.50868 -4.78238 4485 ft 78 kts 275°
2026-05-06 16:12 36.50877 -4.78936 4551 ft 82 kts 274°
2026-05-06 16:13 36.50883 -4.79610 4628 ft 74 kts 279°
2026-05-06 16:13 36.50896 -4.80245 4694 ft 74 kts 271°
2026-05-06 16:13 36.50891 -4.80918 4768 ft 80 kts 274°
2026-05-06 16:13 36.50896 -4.81617 4847 ft 81 kts 275°
2026-05-06 16:14 36.50907 -4.82323 4929 ft 84 kts 275°
2026-05-06 16:14 36.50916 -4.83052 5010 ft 85 kts 276°
2026-05-06 16:14 36.50929 -4.83788 5086 ft 84 kts 275°
2026-05-06 16:14 36.50933 -4.84481 5148 ft 77 kts 275°
2026-05-06 16:15 36.50936 -4.85138 5219 ft 79 kts 276°
2026-05-06 16:15 36.50940 -4.85837 5301 ft 82 kts 276°
2026-05-06 16:15 36.50945 -4.86544 5374 ft 81 kts 276°
2026-05-06 16:15 36.50955 -4.87231 5448 ft 80 kts 276°
2026-05-06 16:16 36.50960 -4.87922 5516 ft 81 kts 274°
2026-05-06 16:16 36.50965 -4.88630 5593 ft 82 kts 275°
2026-05-06 16:16 36.50985 -4.89328 5666 ft 78 kts 285°
2026-05-06 16:16 36.51167 -4.89953 5740 ft 78 kts 293°
2026-05-06 16:17 36.51338 -4.90603 5815 ft 79 kts 293°
2026-05-06 16:17 36.51508 -4.91231 5876 ft 74 kts 292°
2026-05-06 16:17 36.51665 -4.91813 5938 ft 70 kts 294°
2026-05-06 16:17 36.51816 -4.92379 6000 ft 68 kts 294°
2026-05-06 16:18 36.51976 -4.92949 6063 ft 71 kts 294°
2026-05-06 16:18 36.52126 -4.93519 6135 ft 69 kts 292°
2026-05-06 16:18 36.52277 -4.94088 6207 ft 69 kts 293°
2026-05-06 16:18 36.52428 -4.94640 6254 ft 63 kts 292°
2026-05-06 16:19 36.52556 -4.95142 6317 ft 61 kts 293°
2026-05-06 16:19 36.52682 -4.95646 6373 ft 62 kts 294°
2026-05-06 16:19 36.52816 -4.96132 6431 ft 57 kts 292°
2026-05-06 16:19 36.52931 -4.96587 6478 ft 54 kts 294°
2026-05-06 16:20 36.53043 -4.97020 6508 ft 52 kts 291°
2026-05-06 16:20 36.53155 -4.97447 6538 ft 53 kts 294°
2026-05-06 16:20 36.53276 -4.97893 6575 ft 54 kts 293°
2026-05-06 16:20 36.53402 -4.98346 6639 ft 59 kts 292°
2026-05-06 16:21 36.53544 -4.98859 6729 ft 68 kts 292°
2026-05-06 16:21 36.53715 -4.99462 6836 ft 78 kts 292°
2026-05-06 16:21 36.53902 -5.00119 6915 ft 83 kts 291°
2026-05-06 16:21 36.54089 -5.00790 6999 ft 83 kts 291°
2026-05-06 16:22 36.54278 -5.01484 7076 ft 86 kts 291°
2026-05-06 16:22 36.54477 -5.02201 7157 ft 90 kts 290°
2026-05-06 16:22 36.54688 -5.02963 7225 ft 94 kts 290°
2026-05-06 16:22 36.54893 -5.03740 7292 ft 94 kts 289°
2026-05-06 16:23 36.55097 -5.04501 7344 ft 92 kts 290°
2026-05-06 16:23 36.55296 -5.05255 7397 ft 90 kts 289°
2026-05-06 16:23 36.55493 -5.06005 7446 ft 93 kts 289°
2026-05-06 16:23 36.55697 -5.06766 7501 ft 92 kts 289°
2026-05-06 16:24 36.55899 -5.07523 7556 ft 92 kts 290°
2026-05-06 16:24 36.56099 -5.08273 7606 ft 93 kts 289°
2026-05-06 16:24 36.56303 -5.09040 7659 ft 93 kts 289°
2026-05-06 16:24 36.56506 -5.09804 7703 ft 91 kts 289°
2026-05-06 16:25 36.56702 -5.10541 7747 ft 90 kts 289°
2026-05-06 16:25 36.56898 -5.11284 7801 ft 91 kts 289°
2026-05-06 16:25 36.57098 -5.12036 7856 ft 91 kts 289°
2026-05-06 16:25 36.57298 -5.12791 7905 ft 92 kts 288°
2026-05-06 16:26 36.57496 -5.13541 7955 ft 92 kts 288°
2026-05-06 16:26 36.57707 -5.14300 8008 ft 92 kts 289°
2026-05-06 16:26 36.57918 -5.15055 8051 ft 91 kts 288°
2026-05-06 16:26 36.58113 -5.15789 8096 ft 89 kts 287°
2026-05-06 16:27 36.58312 -5.16512 8140 ft 88 kts 288°
2026-05-06 16:27 36.58509 -5.17237 8191 ft 89 kts 288°
2026-05-06 16:27 36.58712 -5.17971 8244 ft 90 kts 288°
2026-05-06 16:27 36.58913 -5.18710 8298 ft 89 kts 287°
2026-05-06 16:28 36.59114 -5.19440 8345 ft 89 kts 287°
2026-05-06 16:28 36.59309 -5.20157 8394 ft 88 kts 287°
2026-05-06 16:28 36.59506 -5.20867 8444 ft 86 kts 286°
2026-05-06 16:28 36.59695 -5.21566 8484 ft 87 kts 285°
2026-05-06 16:29 36.59893 -5.22296 8486 ft 91 kts 287°
2026-05-06 16:29 36.60103 -5.23052 8497 ft 92 kts 287°
2026-05-06 16:29 36.60310 -5.23799 8489 ft 90 kts 287°
2026-05-06 16:29 36.60506 -5.24518 8496 ft 88 kts 287°
2026-05-06 16:30 36.60708 -5.25239 8493 ft 88 kts 287°
2026-05-06 16:30 36.60841 -5.25721 8483 ft 89 kts 287°
2026-05-06 16:30 36.61109 -5.26707 8493 ft 89 kts 286°
2026-05-06 16:30 36.61309 -5.27431 8493 ft 90 kts 287°
2026-05-06 16:31 36.61512 -5.28183 8504 ft 93 kts 287°
2026-05-06 16:31 36.61725 -5.28964 8501 ft 96 kts 287°
2026-05-06 16:31 36.61940 -5.29753 8500 ft 96 kts 286°
2026-05-06 16:31 36.62154 -5.30543 8502 ft 97 kts 287°
2026-05-06 16:32 36.62370 -5.31331 8497 ft 96 kts 287°
2026-05-06 16:32 36.62582 -5.32114 8500 ft 93 kts 287°
2026-05-06 16:32 36.62788 -5.32874 8496 ft 93 kts 287°
2026-05-06 16:32 36.62990 -5.33633 8493 ft 94 kts 287°
2026-05-06 16:33 36.63198 -5.34403 8494 ft 93 kts 287°
2026-05-06 16:33 36.63391 -5.35117 8487 ft 81 kts 286°
2026-05-06 16:33 36.63563 -5.35773 8488 ft 80 kts 287°
2026-05-06 16:34 36.63942 -5.37183 8503 ft 90 kts 286°
2026-05-06 16:34 36.64148 -5.37943 8511 ft 94 kts 287°
2026-05-06 16:34 36.64358 -5.38703 8499 ft 93 kts 287°
2026-05-06 16:34 36.64566 -5.39471 8510 ft 94 kts 287°
2026-05-06 16:35 36.64776 -5.40242 8480 ft 95 kts 288°
2026-05-06 16:35 36.64994 -5.41035 8394 ft 99 kts 288°
2026-05-06 16:35 36.65215 -5.41842 8396 ft 96 kts 288°
2026-05-06 16:35 36.65427 -5.42630 8396 ft 95 kts 287°
2026-05-06 16:36 36.65566 -5.43149 8389 ft 95 kts 288°
2026-05-06 16:36 36.65781 -5.43937 8390 ft 96 kts 288°
2026-05-06 16:36 36.65995 -5.44716 8390 ft 95 kts 289°
2026-05-06 16:36 36.66207 -5.45484 8390 ft 95 kts 287°
2026-05-06 16:37 36.66410 -5.46255 8378 ft 92 kts 287°
2026-05-06 16:37 36.66611 -5.47004 8388 ft 92 kts 287°
2026-05-06 16:37 36.66816 -5.47767 8388 ft 94 kts 288°
2026-05-06 16:37 36.67028 -5.48541 8388 ft 94 kts 288°
2026-05-06 16:38 36.67235 -5.49301 8384 ft 92 kts 288°
2026-05-06 16:38 36.67438 -5.50056 8384 ft 92 kts 288°
2026-05-06 16:38 36.67643 -5.50810 8385 ft 92 kts 288°
2026-05-06 16:38 36.67847 -5.51567 8390 ft 91 kts 288°
2026-05-06 16:39 36.68046 -5.52310 8389 ft 93 kts 287°
2026-05-06 16:39 36.68252 -5.53074 8381 ft 93 kts 288°
2026-05-06 16:39 36.68459 -5.53841 8380 ft 93 kts 288°
2026-05-06 16:39 36.68664 -5.54598 8380 ft 92 kts 288°
2026-05-06 16:40 36.68870 -5.55360 8387 ft 93 kts 289°
2026-05-06 16:40 36.69074 -5.56120 8379 ft 90 kts 287°
2026-05-06 16:40 36.69272 -5.56858 8383 ft 92 kts 288°
2026-05-06 16:40 36.69478 -5.57620 8388 ft 93 kts 288°
2026-05-06 16:41 36.69687 -5.58391 8386 ft 93 kts 288°
2026-05-06 16:41 36.69892 -5.59145 8391 ft 92 kts 288°
2026-05-06 16:41 36.70100 -5.59908 8383 ft 92 kts 288°
2026-05-06 16:41 36.70303 -5.60666 8381 ft 92 kts 288°
2026-05-06 16:42 36.70512 -5.61433 8392 ft 95 kts 289°
2026-05-06 16:42 36.70718 -5.62200 8383 ft 94 kts 288°
2026-05-06 16:42 36.70922 -5.62963 8387 ft 91 kts 288°
2026-05-06 16:42 36.71123 -5.63710 8386 ft 91 kts 288°
2026-05-06 16:43 36.71324 -5.64462 8381 ft 91 kts 288°
2026-05-06 16:43 36.71524 -5.65209 8389 ft 91 kts 288°
2026-05-06 16:43 36.71725 -5.65956 8386 ft 92 kts 288°
2026-05-06 16:43 36.71929 -5.66712 8390 ft 91 kts 288°
2026-05-06 16:44 36.72132 -5.67466 8382 ft 91 kts 288°
2026-05-06 16:44 36.72329 -5.68210 8389 ft 90 kts 288°
2026-05-06 16:44 36.72527 -5.68948 8382 ft 91 kts 289°
2026-05-06 16:44 36.72727 -5.69693 8388 ft 91 kts 289°
2026-05-06 16:45 36.72933 -5.70443 8390 ft 91 kts 289°
2026-05-06 16:45 36.73136 -5.71190 8387 ft 92 kts 288°
2026-05-06 16:45 36.73340 -5.71951 8392 ft 92 kts 288°
2026-05-06 16:45 36.73542 -5.72706 8390 ft 92 kts 288°
2026-05-06 16:46 36.73744 -5.73465 8391 ft 92 kts 288°
2026-05-06 16:46 36.73949 -5.74228 8391 ft 92 kts 288°
2026-05-06 16:46 36.74148 -5.74985 8393 ft 93 kts 288°
2026-05-06 16:46 36.74358 -5.75757 8396 ft 93 kts 288°
2026-05-06 16:47 36.74564 -5.76526 8394 ft 94 kts 289°
2026-05-06 16:47 36.74773 -5.77303 8397 ft 94 kts 288°
2026-05-06 16:47 36.74979 -5.78066 8388 ft 92 kts 290°
2026-05-06 16:47 36.75177 -5.78808 8389 ft 91 kts 288°
2026-05-06 16:48 36.75375 -5.79558 8381 ft 90 kts 289°
2026-05-06 16:48 36.75572 -5.80301 8382 ft 90 kts 289°
2026-05-06 16:48 36.75773 -5.81046 8383 ft 90 kts 289°
2026-05-06 16:48 36.75966 -5.81775 8381 ft 89 kts 288°
2026-05-06 16:49 36.76164 -5.82517 8383 ft 92 kts 289°
2026-05-06 16:49 36.76369 -5.83269 8393 ft 92 kts 289°
2026-05-06 16:49 36.76572 -5.84037 8396 ft 93 kts 289°
2026-05-06 16:49 36.76775 -5.84795 8389 ft 94 kts 289°
2026-05-06 16:50 36.76978 -5.85560 8393 ft 92 kts 289°
2026-05-06 16:50 36.77180 -5.86321 8388 ft 92 kts 289°
2026-05-06 16:50 36.77372 -5.87056 8383 ft 89 kts 288°
2026-05-06 16:50 36.77569 -5.87793 8388 ft 88 kts 289°
2026-05-06 16:51 36.77763 -5.88519 8388 ft 89 kts 289°
2026-05-06 16:51 36.77963 -5.89257 8383 ft 89 kts 289°
2026-05-06 16:51 36.78160 -5.89999 8386 ft 91 kts 289°
2026-05-06 16:51 36.78360 -5.90747 8394 ft 92 kts 289°
2026-05-06 16:52 36.78562 -5.91508 8394 ft 91 kts 289°
2026-05-06 16:52 36.78758 -5.92249 8386 ft 89 kts 288°
2026-05-06 16:52 36.78948 -5.92961 8387 ft 88 kts 290°
2026-05-06 16:52 36.79145 -5.93697 8383 ft 90 kts 289°
2026-05-06 16:53 36.79344 -5.94449 8382 ft 91 kts 290°
2026-05-06 16:53 36.79543 -5.95194 8380 ft 90 kts 289°
2026-05-06 16:53 36.79738 -5.95932 8389 ft 91 kts 289°
2026-05-06 16:53 36.79935 -5.96676 8381 ft 90 kts 289°
2026-05-06 16:54 36.80132 -5.97425 8387 ft 91 kts 289°
2026-05-06 16:54 36.80332 -5.98168 8390 ft 91 kts 289°
2026-05-06 16:54 36.80535 -5.98927 8388 ft 92 kts 290°
2026-05-06 16:54 36.80742 -5.99686 8392 ft 92 kts 291°
2026-05-06 16:55 36.80939 -6.00437 8392 ft 91 kts 289°
2026-05-06 16:55 36.81138 -6.01202 8387 ft 93 kts 289°
2026-05-06 16:55 36.81341 -6.01968 8391 ft 94 kts 289°
2026-05-06 16:55 36.81546 -6.02724 8400 ft 92 kts 292°
2026-05-06 16:56 36.81826 -6.03442 8394 ft 92 kts 296°
2026-05-06 16:56 36.82106 -6.04168 8399 ft 92 kts 296°
2026-05-06 16:56 36.82388 -6.04900 8396 ft 94 kts 296°
2026-05-06 16:56 36.82667 -6.05634 8396 ft 92 kts 295°
2026-05-06 16:57 36.82940 -6.06347 8394 ft 92 kts 296°
2026-05-06 16:57 36.83219 -6.07065 8396 ft 92 kts 296°
2026-05-06 16:57 36.83502 -6.07788 8391 ft 92 kts 296°
2026-05-06 16:57 36.83782 -6.08513 8394 ft 93 kts 296°
2026-05-06 16:58 36.84059 -6.09233 8393 ft 92 kts 296°
2026-05-06 16:58 36.84335 -6.09952 8393 ft 92 kts 296°
2026-05-06 16:58 36.84612 -6.10670 8391 ft 92 kts 296°
2026-05-06 16:58 36.84887 -6.11381 8390 ft 91 kts 296°
2026-05-06 16:59 36.85161 -6.12095 8389 ft 91 kts 296°
2026-05-06 16:59 36.85433 -6.12801 8384 ft 91 kts 296°
2026-05-06 16:59 36.85707 -6.13515 8390 ft 91 kts 296°
2026-05-06 16:59 36.85983 -6.14236 8390 ft 92 kts 297°
2026-05-06 17:00 36.86255 -6.14945 8386 ft 89 kts 296°
2026-05-06 17:00 36.86518 -6.15653 8376 ft 90 kts 295°
2026-05-06 17:00 36.86784 -6.16341 8382 ft 88 kts 296°
2026-05-06 17:00 36.87049 -6.17036 8386 ft 89 kts 296°
2026-05-06 17:01 36.87325 -6.17738 8386 ft 91 kts 296°
2026-05-06 17:01 36.87594 -6.18440 8390 ft 90 kts 296°
2026-05-06 17:01 36.87870 -6.19150 8393 ft 91 kts 296°
2026-05-06 17:01 36.88143 -6.19863 8394 ft 91 kts 296°
2026-05-06 17:02 36.88419 -6.20581 8390 ft 91 kts 297°
2026-05-06 17:02 36.88693 -6.21295 8390 ft 91 kts 296°
2026-05-06 17:02 36.88956 -6.21991 8387 ft 89 kts 296°
2026-05-06 17:02 36.89225 -6.22691 8390 ft 89 kts 296°
2026-05-06 17:03 36.89490 -6.23388 8382 ft 88 kts 296°
2026-05-06 17:03 36.89753 -6.24077 8382 ft 88 kts 296°
2026-05-06 17:03 36.90013 -6.24756 8384 ft 87 kts 296°
2026-05-06 17:03 36.90274 -6.25436 8388 ft 86 kts 296°
2026-05-06 17:04 36.90536 -6.26121 8392 ft 88 kts 296°
2026-05-06 17:04 36.90800 -6.26813 8390 ft 88 kts 297°
2026-05-06 17:04 36.91060 -6.27494 8392 ft 87 kts 297°
2026-05-06 17:04 36.91325 -6.28184 8397 ft 89 kts 296°
2026-05-06 17:05 36.91579 -6.28891 8400 ft 89 kts 288°
2026-05-06 17:05 36.91382 -6.29627 8381 ft 102 kts 230°
2026-05-06 17:05 36.90693 -6.29751 8368 ft 104 kts 161°
2026-05-06 17:05 36.90270 -6.29044 8386 ft 104 kts 107°
2026-05-06 17:06 36.89771 -6.28420 8380 ft 102 kts 171°
2026-05-06 17:06 36.89089 -6.28297 8263 ft 94 kts 177°
2026-05-06 17:06 36.88553 -6.27803 8055 ft 99 kts 130°
2026-05-06 17:06 36.88141 -6.27079 7924 ft 105 kts 118°
2026-05-06 17:07 36.87765 -6.26308 7790 ft 105 kts 120°
2026-05-06 17:07 36.87365 -6.25522 7615 ft 109 kts 121°
2026-05-06 17:07 36.86984 -6.24756 7387 ft 103 kts 116°
2026-05-06 17:07 36.86609 -6.23990 7136 ft 101 kts 123°
2026-05-06 17:08 36.86230 -6.23372 7071 ft 84 kts 122°
2026-05-06 17:08 36.85874 -6.22801 6962 ft 82 kts 122°
2026-05-06 17:08 36.85554 -6.22263 6908 ft 75 kts 114°
2026-05-06 17:08 36.85321 -6.21693 6835 ft 73 kts 103°
2026-05-06 17:09 36.85125 -6.20943 6478 ft 100 kts 102°
2026-05-06 17:09 36.84866 -6.20160 6366 ft 93 kts 103°
2026-05-06 17:09 36.84659 -6.19374 6151 ft 97 kts 102°
2026-05-06 17:09 36.84373 -6.18621 5967 ft 97 kts 114°
2026-05-06 17:10 36.84004 -6.17908 5773 ft 97 kts 114°
2026-05-06 17:10 36.83657 -6.17196 5599 ft 96 kts 116°
2026-05-06 17:10 36.83235 -6.16514 5403 ft 102 kts 125°
2026-05-06 17:10 36.82752 -6.15908 5269 ft 96 kts 126°
2026-05-06 17:11 36.82410 -6.15222 5126 ft 89 kts 102°
2026-05-06 17:11 36.82200 -6.14492 4955 ft 93 kts 103°
2026-05-06 17:11 36.81981 -6.13731 4950 ft 92 kts 102°
2026-05-06 17:11 36.81802 -6.12968 4914 ft 87 kts 88°
2026-05-06 17:12 36.81772 -6.12205 4768 ft 90 kts 84°
2026-05-06 17:12 36.81686 -6.11416 4606 ft 94 kts 91°
2026-05-06 17:12 36.81581 -6.10620 4487 ft 91 kts 89°
2026-05-06 17:12 36.81520 -6.09827 4187 ft 97 kts 83°
2026-05-06 17:13 36.81487 -6.08996 3980 ft 93 kts 82°
2026-05-06 17:13 36.81329 -6.08202 3730 ft 100 kts 109°
2026-05-06 17:13 36.81046 -6.07403 3458 ft 101 kts 111°
2026-05-06 17:13 36.80747 -6.06603 3317 ft 99 kts 108°
2026-05-06 17:14 36.80434 -6.05854 3244 ft 98 kts 126°
2026-05-06 17:14 36.79985 -6.05197 2950 ft 106 kts 120°
2026-05-06 17:14 36.79642 -6.04380 2757 ft 104 kts 118°
2026-05-06 17:14 36.79087 -6.03839 2503 ft 100 kts 178°
2026-05-06 17:15 36.78751 -6.04210 2345 ft 68 kts 279°
2026-05-06 17:15 36.78438 -6.04451 2190 ft 94 kts 145°
2026-05-06 17:15 36.78067 -6.03867 2053 ft 73 kts 185°
2026-05-06 17:15 36.77700 -6.04084 1923 ft 49 kts 231°
2026-05-06 17:16 36.77385 -6.04312 1667 ft 54 kts 221°
2026-05-06 17:16 36.77066 -6.04565 1393 ft 57 kts 220°
2026-05-06 17:16 36.76692 -6.04763 1125 ft 60 kts 216°
2026-05-06 17:16 36.76302 -6.04960 863 ft 58 kts 221°
2026-05-06 17:17 36.75962 -6.05230 656 ft 49 kts 246°
2026-05-06 17:17 36.75637 -6.05416 380 ft 56 kts 227°
2026-05-06 17:17 36.75297 -6.05599 134 ft 52 kts 205°
2026-05-06 17:17 36.75045 -6.05729 94 ft 26 kts 203°
2026-05-06 17:18 36.74893 -6.05810 95 ft 21 kts 217°
2026-05-06 17:18 36.74881 -6.05907 94 ft 14 kts 291°
2026-05-06 17:18 36.74924 -6.06047 91 ft 17 kts 290°
2026-05-06 17:18 36.74953 -6.06105 89 ft 3 kts 350°
2026-05-06 17:19 36.74988 -6.06108 90 ft 0 kts